Humidity-temperature Sensor

Selected Measurement Type: Relative Humidity

 
Relative Humidity [%]     6 entries per hour
Showing data from 10/8/2014 (00:00:00 Z) to 10/5/2014 (00:01:00 Z)
Previous Next [ Day | 3-Days | 7-Days ]
First Last
Prev [ Day | 3-Days | 7-Days ] Next
First Last

Start Time:     :
End Time:     :     
Time (in GMT) :00 :50 :40 :30 :20 :10
Previous Next [ Day | 3-Days | 7-Days ]
First Last
Prev [ Day | 3-Days | 7-Days ] Next
First Last


123 => good data
MM => data is determined as missing
-- => data not received/configured
Back to Top Back to Top
10/8/2014 00:00 to 23:10 83.87 83.28 82.49 82.68 82.62 82.51
10/7/2014 23:00 to 22:10 83.42 83.55 83.28 83.68 84.25 83.55
10/7/2014 22:00 to 21:10 83.02 83.34 83.40 84.36 84.67 84.55
10/7/2014 21:00 to 20:10 83.83 83.42 83.32 82.89 82.72 82.26
10/7/2014 20:00 to 19:10 82.53 83.42 83.11 83.17 83.89 83.93
10/7/2014 19:00 to 18:10 83.66 83.23 83.30 83.19 82.92 83.08
10/7/2014 18:00 to 17:10 82.47 81.90 82.62 82.89 82.64 82.70
10/7/2014 17:00 to 16:10 83.55 83.17 83.47 82.85 83.30 83.13
10/7/2014 16:00 to 15:10 83.30 83.49 83.08 82.26 82.22 83.51
10/7/2014 15:00 to 14:10 83.49 83.19 83.68 83.34 82.75 82.79
10/7/2014 14:00 to 13:10 82.89 83.06 83.13 83.21 83.47 84.12
10/7/2014 13:00 to 12:10 84.19 84.04 84.40 84.04 84.40 84.91
10/7/2014 12:00 to 11:10 85.23 85.48 85.54 85.52 85.12 84.99
10/7/2014 11:00 to 10:10 85.10 85.27 85.63 86.12 86.41 86.37
10/7/2014 10:00 to 9:10 86.29 86.26 86.62 86.45 85.63 85.50
10/7/2014 09:00 to 8:10 85.29 85.46 85.40 85.23 85.50 85.50
10/7/2014 08:00 to 7:10 85.16 84.61 83.91 83.85 84.02 84.67
10/7/2014 07:00 to 6:10 84.80 84.93 85.18 85.48 86.01 85.25
10/7/2014 06:00 to 5:10 85.01 84.57 84.48 83.93 84.19 84.29
10/7/2014 05:00 to 4:10 84.50 84.53 84.50 83.97 83.89 84.21
10/7/2014 04:00 to 3:10 84.59 84.31 83.89 83.53 83.13 82.96
10/7/2014 03:00 to 2:10 82.66 82.51 82.51 82.79 82.77 82.66
10/7/2014 02:00 to 1:10 82.47 82.94 82.22 81.77 81.77 81.41
10/7/2014 01:00 to 0:10 81.20 80.56 81.56 80.73 81.33 81.62
10/7/2014 00:00 to 23:10 81.35 81.81 82.28 82.34 82.36 82.34
10/6/2014 23:00 to 22:10 82.89 82.89 83.57 83.06 82.00 81.77
10/6/2014 22:00 to 21:10 82.41 83.28 83.38 82.87 82.72 82.58
10/6/2014 21:00 to 20:10 82.32 82.17 82.26 81.83 82.19 81.77
10/6/2014 20:00 to 19:10 81.47 81.98 81.56 81.18 81.54 81.69
10/6/2014 19:00 to 18:10 81.43 80.75 80.63 81.11 82.11 82.41
10/6/2014 18:00 to 17:10 82.39 81.83 81.64 81.58 81.52 81.26
10/6/2014 17:00 to 16:10 81.03 80.58 80.56 79.80 79.50 79.33
10/6/2014 16:00 to 15:10 79.48 79.80 80.12 81.22 81.77 83.11
10/6/2014 15:00 to 14:10 81.33 80.92 81.90 83.47 83.76 83.97
10/6/2014 14:00 to 13:10 84.17 83.66 83.59 83.78 83.70 84.50
10/6/2014 13:00 to 12:10 -- -- -- -- -- --
10/6/2014 12:00 to 11:10 83.59 83.59 83.91 83.72 84.10 84.55
10/6/2014 11:00 to 10:10 84.53 84.53 84.65 84.48 84.36 84.72
10/6/2014 10:00 to 9:10 84.34 84.38 84.34 84.14 84.48 84.78
10/6/2014 09:00 to 8:10 84.61 84.82 84.84 85.25 85.25 84.78
10/6/2014 08:00 to 7:10 84.70 84.48 84.67 84.23 83.93 84.31
10/6/2014 07:00 to 6:10 84.23 84.55 84.42 84.21 83.68 83.44
10/6/2014 06:00 to 5:10 83.49 83.34 83.30 83.42 83.68 83.49
10/6/2014 05:00 to 4:10 83.61 83.70 83.51 83.89 84.23 84.21
10/6/2014 04:00 to 3:10 84.21 84.00 83.34 82.94 82.83 82.79
10/6/2014 03:00 to 2:10 82.39 82.51 82.79 82.79 82.94 82.53
10/6/2014 02:00 to 1:10 82.19 81.69 81.05 80.86 81.73 81.88
10/6/2014 01:00 to 0:10 80.82 80.65 81.07 81.58 81.83 82.15
10/6/2014 00:00 to 23:10 82.30 82.05 82.05 81.64 81.92 82.15
10/5/2014 23:00 to 22:10 82.39 82.51 82.24 82.00 82.43 82.36
10/5/2014 22:00 to 21:10 82.22 82.34 82.34 82.64 82.02 82.11
10/5/2014 21:00 to 20:10 82.39 82.09 82.17 82.11 81.60 81.30
10/5/2014 20:00 to 19:10 81.22 80.71 81.01 81.71 82.00 82.24
10/5/2014 19:00 to 18:10 83.08 82.98 82.85 82.89 82.28 82.49
10/5/2014 18:00 to 17:10 82.51 82.26 82.49 83.02 82.66 82.98
10/5/2014 17:00 to 16:10 82.53 82.32 82.34 82.24 82.19 81.83
10/5/2014 16:00 to 15:10 81.71 81.58 81.69 81.79 82.47 81.54
10/5/2014 15:00 to 14:10 81.92 82.41 83.04 83.74 84.08 84.12
10/5/2014 14:00 to 13:10 84.04 83.70 83.83 83.74 83.68 83.72
10/5/2014 13:00 to 12:10 83.83 83.47 83.38 83.44 83.40 83.19
10/5/2014 12:00 to 11:10 82.85 82.92 82.62 83.02 82.39 82.60
10/5/2014 11:00 to 10:10 82.39 81.77 81.62 81.83 82.58 82.58
10/5/2014 10:00 to 9:10 82.13 81.30 81.22 80.77 80.31 80.46
10/5/2014 09:00 to 8:10 80.80 80.75 80.77 80.96 80.86 80.65
10/5/2014 08:00 to 7:10 80.75 81.33 81.54 82.19 82.68 82.22
10/5/2014 07:00 to 6:10 82.55 81.54 81.49 80.88 80.35 79.57
10/5/2014 06:00 to 5:10 79.74 80.29 80.20 80.16 79.31 79.18
10/5/2014 05:00 to 4:10 79.46 79.97 79.25 79.35 79.76 79.78
10/5/2014 04:00 to 3:10 79.69 79.12 79.33 80.07 81.01 81.05
10/5/2014 03:00 to 2:10 79.78 79.27 79.91 80.69 79.80 79.88
10/5/2014 02:00 to 1:10 80.05 79.63 79.86 79.44 78.78 78.08
10/5/2014 01:00 to 0:10 78.21 77.83 78.61 78.10 77.96 78.48